Total_Precipitation_Accumulation
0.00 0.00 0.00 0.00 0.00 0.00 0.00 0.00 0.00 0.00 0.00 0.00 0.00 0.00 0.00 0.00 0.00 0.00 0.00 0.00 0.00 0.00 0.00 0.00 0.00 0.00 0.00 0.00 0.00 0.00 0.00 0.00 0.00 0.01 0.01 0.01 0.02 0.01 0.01 0.01 0.01 0.04 0.06 0.04 0.02 0.12 0.17 0.01 0.00 0.01 0.00 0.01 0.01 0.01 0.01 0.03 0.00 0.00 0.00 0.00 0.00 0.00 0.00 0.00 0.00 0.00 0.00 0.00 0.00 0.00 0.00 0.00 0.00 0.00 0.00 0.00 0.00 0.00 0.00 0.00 0.00 0.00 0.00 0.00 0.00 0.00
0.00 0.00 0.00 0.00 0.00 0.00 0.00 0.00 0.00 0.00 0.00 0.00 0.00 0.00 0.00 0.00 0.00 0.00 0.00 0.00 0.00 0.00 0.00 0.00 0.00 0.00 0.00 0.00 0.00 0.00 0.00 0.00 0.00 0.00 0.00 0.01 0.00 0.00 0.01 0.02 0.04 0.00 0.03 0.05 0.00 0.01 0.00 0.00 0.00 0.00 0.00 0.01 0.01 0.01 0.00 0.00 0.00 0.00 0.00 0.00 0.00 0.00 0.00 0.00 0.00 0.00 0.00 0.00 0.00 0.00 0.00 0.00 0.00 0.00 0.00 0.00 0.00 0.00 0.00 0.00 0.00 0.00 0.00 0.00 0.00 0.00
0.00 0.00 0.00 0.00 0.00 0.00 0.00 0.00 0.00 0.00 0.00 0.00 0.00 0.00 0.00 0.00 0.00 0.00 0.00 0.00 0.00 0.00 0.00 0.00 0.00 0.00 0.00 0.00 0.00 0.00 0.00 0.00 0.00 0.00 0.00 0.00 0.00 0.00 0.01 0.01 0.03 0.07 0.02 0.00 0.01 0.01 0.01 0.00 0.00 0.00 0.00 0.00 0.00 0.00 0.00 0.00 0.00 0.00 0.00 0.00 0.00 0.00 0.00 0.00 0.00 0.00 0.00 0.00 0.00 0.00 0.00 0.00 0.00 0.00 0.00 0.00 0.00 0.00 0.00 0.00 0.00 0.00 0.00 0.00 0.00 0.00
0.00 0.00 0.00 0.00 0.00 0.00 0.00 0.00 0.00 0.00 0.00 0.00 0.00 0.00 0.00 0.00 0.00 0.02 0.00 0.00 0.00 0.00 0.00 0.00 0.00 0.00 0.00 0.00 0.00 0.00 0.00 0.00 0.00 0.00 0.00 0.00 0.00 0.00 0.00 0.00 0.02 0.00 0.00 0.01 0.00 0.01 0.02 0.00 0.00 0.00 0.00 0.00 0.00 0.00 0.00 0.00 0.00 0.00 0.00 0.00 0.00 0.00 0.00 0.00 0.00 0.00 0.00 0.00 0.00 0.00 0.00 0.00 0.00 0.00 0.00 0.00 0.00 0.00 0.00 0.00 0.00 0.00 0.00 0.00 0.00 0.00
0.01 0.01 0.00 0.00 0.00 0.00 0.00 0.00 0.00 0.00 0.00 0.00 0.00 0.00 0.00 0.00 0.00 0.00 0.02 0.00 0.00 0.00 0.00 0.00 0.00 0.00 0.00 0.00 0.00 0.00 0.00 0.00 0.00 0.00 0.00 0.00 0.00 0.00 0.00 0.00 0.01 0.01 0.00 0.01 0.02 0.04 0.02 0.03 0.02 0.01 0.00 0.00 0.00 0.00 0.00 0.00 0.00 0.00 0.00 0.00 0.00 0.00 0.00 0.00 0.00 0.00 0.00 0.00 0.00 0.00 0.00 0.00 0.00 0.00 0.00 0.00 0.00 0.00 0.00 0.00 0.00 0.00 0.00 0.00 0.00 0.00
0.00 0.00 0.00 0.00 0.00 0.00 0.00 0.00 0.00 0.00 0.00 0.00 0.00 0.00 0.00 0.00 0.00 0.00 0.00 0.00 0.00 0.01 0.00 0.00 0.00 0.00 0.00 0.00 0.00 0.00 0.00 0.00 0.00 0.00 0.00 0.00 0.00 0.00 0.00 0.00 0.02 0.00 0.00 0.01 0.01 0.00 0.08 0.05 0.08 0.01 0.00 0.00 0.00 0.00 0.00 0.00 0.00 0.00 0.00 0.00 0.00 0.00 0.00 0.00 0.00 0.00 0.00 0.00 0.00 0.00 0.00 0.00 0.00 0.00 0.00 0.00 0.00 0.00 0.00 0.00 0.00 0.00 0.00 0.00 0.00 0.00
0.01 0.00 0.00 0.00 0.00 0.00 0.00 0.00 0.00 0.00 0.00 0.00 0.05 0.00 0.00 0.00 0.00 0.00 0.00 0.00 0.00 0.00 0.03 0.00 0.01 0.00 0.00 0.00 0.00 0.00 0.00 0.00 0.00 0.00 0.00 0.00 0.00 0.00 0.00 0.00 0.01 0.00 0.00 0.00 0.00 0.00 0.00 0.11 0.18 0.16 0.07 0.14 0.01 0.00 0.00 0.00 0.00 0.00 0.00 0.00 0.00 0.00 0.00 0.00 0.00 0.00 0.00 0.00 0.00 0.00 0.00 0.00 0.00 0.00 0.00 0.00 0.00 0.00 0.00 0.00 0.00 0.00 0.00 0.00 0.00 0.00
0.00 0.00 0.00 0.00 0.00 0.00 0.00 0.00 0.00 0.00 0.01 0.02 0.03 0.00 0.00 0.00 0.00 0.01 0.00 0.00 0.01 0.00 0.00 0.00 0.00 0.00 0.01 0.03 0.00 0.00 0.00 0.00 0.00 0.00 0.00 0.00 0.00 0.00 0.00 0.01 0.01 0.00 0.01 0.00 0.00 0.03 0.01 0.01 0.03 0.06 0.09 0.14 0.08 0.01 0.01 0.01 0.00 0.00 0.00 0.00 0.00 0.00 0.00 0.00 0.00 0.00 0.00 0.00 0.00 0.00 0.00 0.00 0.00 0.00 0.00 0.00 0.00 0.00 0.00 0.00 0.00 0.00 0.00 0.00 0.00 0.00
0.00 0.00 0.00 0.00 0.00 0.00 0.00 0.00 0.00 0.00 0.00 0.04 0.00 0.00 0.01 0.00 0.04 0.00 0.00 0.01 0.03 0.01 0.01 0.01 0.01 0.00 0.00 0.01 0.00 0.00 0.00 0.00 0.01 0.00 0.00 0.00 0.00 0.00 0.00 0.00 0.00 0.00 0.00 0.00 0.00 0.01 0.00 0.03 0.07 0.09 0.16 0.14 0.11 0.14 0.06 0.00 0.00 0.00 0.00 0.00 0.00 0.00 0.00 0.00 0.00 0.00 0.00 0.00 0.00 0.00 0.00 0.00 0.00 0.00 0.00 0.00 0.00 0.00 0.00 0.00 0.00 0.00 0.00 0.00 0.00 0.00
0.00 0.00 0.00 0.00 0.00 0.00 0.00 0.00 0.00 0.00 0.02 0.00 0.00 0.00 0.00 0.00 0.00 0.00 0.01 0.00 0.03 0.01 0.00 0.00 0.05 0.01 0.02 0.02 0.00 0.00 0.00 0.00 0.02 0.00 0.00 0.00 0.00 0.00 0.00 0.00 0.00 0.00 0.00 0.00 0.00 0.01 0.01 0.01 0.03 0.03 0.08 0.13 0.20 0.35 0.17 0.01 0.01 0.01 0.00 0.00 0.00 0.00 0.00 0.00 0.00 0.00 0.00 0.00 0.00 0.00 0.00 0.00 0.00 0.00 0.00 0.00 0.00 0.00 0.00 0.00 0.00 0.00 0.00 0.00 0.00 0.00
0.00 0.00 0.00 0.00 0.00 0.00 0.00 0.00 0.00 0.00 0.00 0.00 0.00 0.00 0.01 0.00 0.01 0.00 0.00 0.02 0.01 0.03 0.00 0.01 0.01 0.00 0.03 0.05 0.02 0.12 0.00 0.00 0.00 0.00 0.00 0.00 0.00 0.00 0.00 0.00 0.00 0.00 0.00 0.00 0.00 0.00 0.00 0.00 0.02 0.06 0.06 0.66 1.18 0.98 0.47 0.09 0.01 0.01 0.00 0.00 0.00 0.00 0.00 0.00 0.00 0.00 0.00 0.00 0.00 0.00 0.00 0.00 0.00 0.00 0.00 0.00 0.00 0.00 0.00 0.00 0.00 0.00 0.00 0.00 0.00 0.00
0.00 0.00 0.00 0.00 0.00 0.00 0.00 0.00 0.00 0.00 0.00 0.00 0.00 0.02 0.01 0.02 0.01 0.02 0.05 0.04 0.02 0.00 0.01 0.02 0.01 0.09 0.03 0.02 0.01 0.01 0.00 0.00 0.01 0.01 0.01 0.02 0.00 0.00 0.00 0.00 0.00 0.00 0.00 0.00 0.00 0.00 0.00 0.00 0.00 0.00 0.05 0.01 0.08 0.30 0.47 0.39 0.09 0.01 0.01 0.00 0.00 0.00 0.00 0.00 0.00 0.00 0.00 0.00 0.00 0.00 0.00 0.00 0.00 0.00 0.00 0.00 0.00 0.00 0.00 0.00 0.00 0.00 0.00 0.00 0.00 0.00
0.00 0.00 0.00 0.00 0.00 0.00 0.00 0.00 0.00 0.00 0.00 0.00 0.00 0.01 0.06 0.04 0.01 0.03 0.04 0.03 0.03 0.00 0.10 0.01 0.03 0.00 0.00 0.00 0.01 0.00 0.00 0.00 0.00 0.00 0.03 0.01 0.00 0.00 0.00 0.00 0.00 0.00 0.00 0.00 0.00 0.00 0.00 0.00 0.02 0.00 0.00 0.02 0.64 0.39 0.14 0.27 0.26 0.16 0.03 0.04 0.04 0.00 0.00 0.01 0.00 0.00 0.00 0.00 0.00 0.00 0.00 0.00 0.00 0.00 0.00 0.00 0.00 0.00 0.00 0.00 0.00 0.00 0.00 0.00 0.00 0.00
0.00 0.00 0.00 0.00 0.00 0.00 0.00 0.00 0.05 0.01 0.00 0.00 0.01 0.11 0.03 0.07 0.02 0.02 0.08 0.04 0.05 0.03 0.04 0.09 0.05 0.01 0.01 0.03 0.00 0.00 0.00 0.00 0.00 0.00 0.00 0.00 0.00 0.00 0.00 0.01 0.00 0.00 0.00 0.00 0.00 0.02 0.00 0.04 0.12 0.11 0.45 0.56 0.66 0.25 0.40 0.37 0.33 0.17 0.15 0.01 0.01 0.00 0.02 0.01 0.00 0.00 0.00 0.00 0.00 0.00 0.00 0.00 0.00 0.00 0.00 0.00 0.00 0.00 0.00 0.00 0.00 0.00 0.00 0.00 0.00 0.00
0.02 0.03 0.01 0.00 0.04 0.00 0.00 0.00 0.01 0.02 0.02 0.01 0.00 0.01 0.16 0.04 0.05 0.03 0.07 0.03 0.02 0.08 0.03 0.04 0.00 0.00 0.00 0.10 0.00 0.00 0.00 0.00 0.00 0.00 0.00 0.00 0.00 0.00 0.00 0.00 0.00 0.00 0.00 0.00 0.00 0.00 0.00 0.01 0.18 0.62 0.96 1.19 0.62 0.45 0.37 0.42 0.32 0.52 0.77 0.21 0.58 0.33 0.31 0.07 0.00 0.00 0.00 0.00 0.00 0.00 0.00 0.00 0.00 0.00 0.00 0.00 0.00 0.00 0.00 0.00 0.00 0.00 0.00 0.00 0.00 0.00
0.01 0.01 0.02 0.00 0.00 0.00 0.00 0.00 0.00 0.00 0.00 0.00 0.01 0.00 0.01 0.01 0.02 0.06 0.04 0.01 0.01 0.04 0.01 0.01 0.00 0.03 0.13 0.03 0.01 0.00 0.00 0.03 0.00 0.00 0.00 0.00 0.00 0.00 0.00 0.00 0.00 0.00 0.02 0.01 0.00 0.00 0.10 0.67 0.67 1.00 1.33 1.35 0.69 0.13 0.33 0.31 0.60 0.83 0.60 0.96 1.11 0.86 0.97 0.48 0.10 0.01 0.01 0.00 0.00 0.00 0.00 0.00 0.00 0.01 0.00 0.00 0.00 0.00 0.00 0.00 0.00 0.00 0.00 0.00 0.00 0.00
0.01 0.00 0.00 0.00 0.00 0.00 0.00 0.00 0.01 0.00 0.08 0.13 0.00 0.06 0.03 0.05 0.01 0.07 0.00 0.00 0.00 0.00 0.00 0.00 0.02 0.02 0.01 0.01 0.00 0.07 0.02 0.02 0.02 0.00 0.00 0.00 0.00 0.00 0.00 0.01 0.00 0.00 0.02 0.03 0.05 0.54 0.77 0.77 0.55 0.24 0.18 0.42 0.29 0.11 0.06 0.11 0.23 0.46 0.36 0.78 0.96 0.68 1.13 0.53 0.54 0.22 0.03 0.00 0.00 0.00 0.00 0.00 0.00 0.00 0.00 0.00 0.00 0.00 0.00 0.00 0.00 0.00 0.00 0.00 0.00 0.00
0.05 0.04 0.01 0.00 0.02 0.00 0.00 0.00 0.00 0.00 0.00 0.01 0.03 0.08 0.00 0.00 0.01 0.04 0.06 0.06 0.03 0.02 0.01 0.00 0.00 0.03 0.01 0.08 0.00 0.00 0.00 0.00 0.01 0.01 0.00 0.01 0.03 0.08 0.09 0.05 0.04 0.10 0.06 0.20 0.80 0.55 0.23 0.07 0.05 0.12 0.48 0.40 0.05 0.01 0.05 0.04 0.08 0.18 0.48 0.92 1.86 2.09 2.35 1.18 0.50 0.13 0.03 0.01 0.01 0.00 0.00 0.00 0.00 0.00 0.00 0.00 0.00 0.00 0.00 0.00 0.00 0.00 0.00 0.00 0.00 0.00
0.00 0.02 0.04 0.00 0.00 0.01 0.00 0.00 0.00 0.00 0.00 0.01 0.02 0.02 0.03 0.08 0.08 0.07 0.01 0.01 0.01 0.00 0.05 0.01 0.03 0.01 0.04 0.05 0.02 0.04 0.01 0.01 0.01 0.00 0.00 0.00 0.00 0.02 0.05 0.33 0.57 0.48 0.57 0.62 0.47 0.46 0.23 0.03 0.02 0.02 0.09 0.09 0.01 0.01 0.12 0.00 0.14 0.52 0.29 1.04 0.79 1.00 1.30 0.57 0.48 0.17 0.03 0.02 0.01 0.00 0.00 0.00 0.00 0.00 0.00 0.00 0.00 0.00 0.00 0.00 0.00 0.00 0.00 0.00 0.00 0.01
0.00 0.01 0.01 0.00 0.00 0.02 0.00 0.00 0.01 0.03 0.00 0.00 0.00 0.00 0.02 0.01 0.01 0.12 0.09 0.16 0.02 0.03 0.02 0.02 0.02 0.10 0.02 0.11 0.01 0.10 0.04 0.01 0.00 0.00 0.00 0.00 0.00 0.00 0.00 0.01 0.05 0.05 0.13 0.09 0.06 0.05 0.06 0.05 0.02 0.02 0.01 0.01 0.01 0.00 0.00 0.04 0.23 0.15 0.18 0.74 0.38 0.40 0.61 0.57 0.70 0.58 0.08 0.01 0.00 0.00 0.00 0.01 0.01 0.00 0.00 0.00 0.00 0.00 0.00 0.00 0.00 0.00 0.00 0.00 0.00 0.00
0.00 0.00 0.00 0.05 0.00 0.00 0.01 0.01 0.03 0.08 0.11 0.06 0.01 0.01 0.01 0.01 0.01 0.01 0.05 0.05 0.09 0.17 0.07 0.11 0.08 0.07 0.08 0.06 0.02 0.06 0.05 0.02 0.02 0.01 0.01 0.01 0.01 0.00 0.01 0.02 0.07 0.06 0.01 0.01 0.01 0.00 0.01 0.01 0.02 0.01 0.00 0.01 0.00 0.01 0.00 0.00 0.02 0.01 0.04 0.10 0.23 0.21 0.13 0.25 0.34 0.43 0.46 0.25 0.05 0.01 0.01 0.00 0.02 0.02 0.00 0.00 0.00 0.00 0.01 0.00 0.00 0.01 0.00 0.00 0.00 0.00
0.00 0.00 0.00 0.00 0.02 0.01 0.01 0.00 0.02 0.00 0.04 0.02 0.08 0.11 0.06 0.15 0.23 0.21 0.24 0.02 0.08 0.13 0.08 0.06 0.05 0.11 0.22 0.00 0.01 0.01 0.03 0.04 0.05 0.07 0.04 0.01 0.01 0.01 0.02 0.01 0.00 0.01 0.00 0.00 0.00 0.00 0.00 0.00 0.00 0.00 0.00 0.01 0.02 0.01 0.02 0.05 0.02 0.01 0.04 0.04 0.02 0.00 0.01 0.04 0.04 0.10 0.21 0.19 0.15 0.08 0.04 0.03 0.03 0.04 0.12 0.01 0.00 0.01 0.00 0.00 0.00 0.00 0.00 0.00 0.00 0.00
0.00 0.05 0.00 0.00 0.00 0.02 0.02 0.05 0.00 0.00 0.00 0.02 0.01 0.01 0.01 0.08 0.10 0.17 0.18 0.17 0.14 0.14 0.11 0.14 0.15 0.14 0.04 0.03 0.00 0.01 0.03 0.02 0.03 0.02 0.02 0.02 0.05 0.04 0.02 0.02 0.02 0.01 0.00 0.00 0.00 0.00 0.00 0.00 0.00 0.00 0.00 0.00 0.00 0.00 0.00 0.02 0.00 0.01 0.01 0.02 0.02 0.04 0.08 0.04 0.08 0.17 0.16 0.12 0.16 0.17 0.35 0.35 0.39 0.09 0.05 0.02 0.01 0.01 0.01 0.02 0.01 0.02 0.02 0.01 0.01 0.00
0.00 0.01 0.01 0.00 0.00 0.00 0.00 0.00 0.00 0.00 0.00 0.01 0.01 0.01 0.06 0.06 0.07 0.16 0.21 0.17 0.08 0.06 0.10 0.07 0.08 0.16 0.04 0.04 0.02 0.01 0.02 0.00 0.01 0.01 0.04 0.00 0.00 0.00 0.00 0.00 0.01 0.01 0.02 0.00 0.00 0.00 0.00 0.00 0.00 0.00 0.00 0.00 0.00 0.00 0.00 0.02 0.01 0.00 0.00 0.02 0.01 0.05 0.02 0.06 0.11 0.09 0.15 0.26 0.22 0.18 0.16 0.15 0.12 0.20 0.29 0.25 0.24 0.12 0.10 0.07 0.12 0.14 0.05 0.01 0.01 0.01
0.02 0.22 0.05 0.03 0.00 0.00 0.00 0.00 0.00 0.01 0.02 0.08 0.06 0.07 0.06 0.02 0.03 0.04 0.03 0.09 0.21 0.05 0.05 0.20 0.15 0.14 0.02 0.04 0.00 0.04 0.01 0.00 0.02 0.02 0.02 0.01 0.03 0.03 0.01 0.01 0.00 0.00 0.00 0.00 0.00 0.00 0.00 0.00 0.00 0.00 0.00 0.00 0.00 0.02 0.00 0.00 0.00 0.00 0.00 0.00 0.02 0.07 0.03 0.05 0.08 0.11 0.10 0.14 0.14 0.19 0.40 0.37 0.28 0.16 0.16 0.26 0.37 0.40 0.28 0.23 0.28 0.40 0.34 0.31 0.25 0.15
0.02 0.05 0.02 0.06 0.11 0.02 0.01 0.01 0.04 0.12 0.06 0.03 0.01 0.02 0.01 0.01 0.05 0.06 0.10 0.04 0.17 0.07 0.03 0.20 0.12 0.07 0.03 0.01 0.01 0.02 0.01 0.02 0.02 0.01 0.01 0.01 0.04 0.09 0.05 0.02 0.01 0.03 0.01 0.01 0.01 0.00 0.00 0.00 0.00 0.01 0.00 0.01 0.00 0.00 0.00 0.01 0.01 0.06 0.06 0.06 0.01 0.01 0.03 0.01 0.07 0.07 0.13 0.20 0.30 0.47 0.43 0.15 0.16 0.29 0.38 0.27 0.25 0.17 0.09 0.12 0.19 0.24 0.33 0.36 0.40 0.46
0.16 0.02 0.04 0.05 0.06 0.10 0.03 0.02 0.03 0.02 0.04 0.10 0.02 0.03 0.03 0.03 0.13 0.16 0.17 0.22 0.13 0.05 0.11 0.08 0.11 0.11 0.03 0.02 0.01 0.04 0.04 0.03 0.02 0.03 0.05 0.14 0.20 0.01 0.01 0.02 0.02 0.02 0.03 0.01 0.02 0.01 0.01 0.01 0.00 0.01 0.01 0.02 0.02 0.00 0.00 0.00 0.00 0.00 0.00 0.01 0.02 0.01 0.01 0.05 0.02 0.03 0.05 0.12 0.06 0.04 0.10 0.23 0.45 0.35 0.16 0.10 0.09 0.05 0.12 0.09 0.08 0.08 0.45 0.65 0.60 0.46
0.02 0.01 0.03 0.06 0.05 0.03 0.01 0.01 0.01 0.01 0.11 0.04 0.03 0.01 0.03 0.02 0.04 0.07 0.08 0.13 0.04 0.16 0.24 0.02 0.07 0.01 0.03 0.09 0.05 0.04 0.06 0.03 0.05 0.04 0.03 0.06 0.04 0.06 0.05 0.04 0.01 0.02 0.01 0.01 0.02 0.01 0.01 0.01 0.01 0.00 0.01 0.03 0.02 0.00 0.03 0.00 0.01 0.02 0.01 0.02 0.01 0.01 0.03 0.01 0.01 0.02 0.01 0.05 0.05 0.02 0.08 0.24 0.36 0.19 0.42 0.30 0.38 0.24 0.21 0.35 0.57 0.73 0.94 0.84 0.49 0.49
0.17 0.03 0.00 0.02 0.03 0.04 0.11 0.06 0.03 0.06 0.08 0.08 0.06 0.06 0.03 0.02 0.12 0.15 0.09 0.09 0.04 0.12 0.06 0.02 0.02 0.04 0.02 0.01 0.02 0.03 0.03 0.05 0.09 0.05 0.07 0.02 0.02 0.03 0.05 0.04 0.02 0.04 0.05 0.05 0.04 0.05 0.02 0.08 0.02 0.05 0.01 0.03 0.04 0.02 0.06 0.02 0.03 0.01 0.00 0.00 0.00 0.01 0.00 0.00 0.00 0.00 0.01 0.03 0.06 0.10 0.12 0.12 0.24 0.41 0.19 0.42 0.40 0.25 0.44 0.84 0.64 0.46 0.48 0.40 0.33 0.20
0.01 0.00 0.00 0.02 0.03 0.01 0.02 0.03 0.03 0.05 0.04 0.06 0.04 0.02 0.05 0.07 0.19 0.10 0.10 0.04 0.04 0.07 0.03 0.01 0.00 0.00 0.02 0.02 0.02 0.04 0.02 0.01 0.04 0.07 0.07 0.05 0.04 0.03 0.04 0.03 0.05 0.04 0.04 0.06 0.05 0.03 0.04 0.02 0.05 0.02 0.02 0.05 0.07 0.05 0.02 0.04 0.03 0.01 0.01 0.00 0.01 0.00 0.01 0.00 0.01 0.01 0.00 0.03 0.01 0.04 0.07 0.33 0.29 0.54 0.65 0.23 0.34 0.25 0.42 0.35 0.49 0.59 0.37 0.42 0.29 0.14
0.00 0.01 0.01 0.03 0.01 0.00 0.00 0.00 0.03 0.03 0.02 0.05 0.05 0.03 0.08 0.12 0.09 0.04 0.02 0.00 0.06 0.09 0.02 0.00 0.00 0.00 0.05 0.01 0.00 0.01 0.01 0.00 0.02 0.00 0.03 0.02 0.05 0.05 0.04 0.03 0.05 0.05 0.06 0.13 0.13 0.11 0.07 0.07 0.08 0.08 0.08 0.10 0.09 0.06 0.04 0.02 0.01 0.01 0.01 0.02 0.03 0.01 0.00 0.00 0.01 0.06 0.15 0.19 0.27 0.33 0.37 0.59 0.53 0.28 0.34 0.11 0.36 0.28 0.42 0.46 0.28 0.22 0.17 0.18 0.12 0.20
0.01 0.01 0.01 0.04 0.04 0.00 0.00 0.00 0.02 0.02 0.02 0.02 0.02 0.02 0.02 0.01 0.01 0.01 0.02 0.01 0.02 0.00 0.02 0.05 0.02 0.02 0.00 0.00 0.00 0.00 0.00 0.00 0.02 0.03 0.03 0.02 0.02 0.02 0.01 0.02 0.01 0.02 0.03 0.05 0.02 0.05 0.04 0.03 0.06 0.13 0.08 0.09 0.07 0.06 0.05 0.04 0.05 0.02 0.04 0.02 0.05 0.07 0.15 0.19 0.31 0.45 0.50 0.51 0.56 0.50 0.46 0.39 0.42 0.28 0.33 0.26 0.19 0.25 0.17 0.14 0.12 0.11 0.12 0.12 0.23 0.12
0.03 0.01 0.00 0.02 0.05 0.00 0.01 0.02 0.02 0.00 0.03 0.04 0.01 0.01 0.01 0.00 0.01 0.06 0.09 0.04 0.02 0.03 0.01 0.02 0.01 0.00 0.01 0.01 0.00 0.01 0.00 0.01 0.00 0.01 0.05 0.02 0.01 0.01 0.01 0.01 0.02 0.03 0.04 0.04 0.06 0.10 0.04 0.04 0.05 0.05 0.07 0.07 0.16 0.08 0.04 0.05 0.05 0.03 0.03 0.06 0.07 0.06 0.06 0.10 0.15 0.22 0.39 0.37 0.36 0.33 0.31 0.40 0.31 0.28 0.26 0.14 0.15 0.06 0.53 0.52 0.23 0.23 0.11 0.07 0.09 0.05
0.02 0.02 0.01 0.05 0.10 0.00 0.01 0.01 0.04 0.08 0.07 0.01 0.02 0.01 0.02 0.03 0.04 0.04 0.02 0.01 0.01 0.03 0.01 0.01 0.00 0.02 0.01 0.01 0.01 0.01 0.01 0.02 0.04 0.01 0.03 0.05 0.06 0.06 0.04 0.01 0.01 0.03 0.04 0.02 0.06 0.15 0.25 0.02 0.03 0.03 0.01 0.04 0.03 0.14 0.19 0.10 0.13 0.04 0.05 0.03 0.03 0.03 0.04 0.03 0.06 0.05 0.06 0.09 0.15 0.19 0.16 0.11 0.20 0.16 0.18 0.31 0.30 0.31 0.24 0.15 0.14 0.12 0.05 0.04 0.06 0.05
0.01 0.02 0.01 0.02 0.08 0.02 0.00 0.02 0.09 0.05 0.01 0.01 0.00 0.01 0.01 0.01 0.00 0.01 0.02 0.02 0.02 0.06 0.05 0.03 0.04 0.03 0.02 0.04 0.03 0.04 0.05 0.06 0.07 0.04 0.04 0.01 0.01 0.08 0.04 0.03 0.05 0.06 0.11 0.22 0.12 0.12 0.14 0.04 0.07 0.08 0.03 0.03 0.02 0.02 0.05 0.07 0.11 0.12 0.06 0.09 0.05 0.04 0.05 0.05 0.12 0.08 0.05 0.03 0.04 0.07 0.08 0.09 0.05 0.17 0.34 0.48 0.51 0.45 0.19 0.11 0.10 0.12 0.09 0.06 0.11 0.09
0.00 0.00 0.02 0.06 0.04 0.06 0.07 0.13 0.07 0.03 0.00 0.02 0.01 0.00 0.01 0.00 0.01 0.04 0.04 0.03 0.01 0.04 0.02 0.02 0.03 0.02 0.04 0.04 0.05 0.06 0.18 0.09 0.05 0.01 0.05 0.04 0.01 0.06 0.10 0.05 0.05 0.05 0.12 0.07 0.10 0.24 0.22 0.44 0.41 0.07 0.12 0.19 0.03 0.04 0.06 0.07 0.06 0.05 0.06 0.07 0.06 0.03 0.04 0.04 0.08 0.09 0.08 0.05 0.04 0.03 0.10 0.32 0.24 0.10 0.26 0.23 0.14 0.20 0.21 0.12 0.04 0.22 0.13 0.28 0.13 0.14
0.01 0.01 0.03 0.04 0.06 0.07 0.03 0.08 0.07 0.04 0.01 0.00 0.00 0.00 0.00 0.00 0.03 0.03 0.02 0.03 0.02 0.02 0.00 0.01 0.02 0.04 0.07 0.08 0.10 0.08 0.14 0.06 0.04 0.04 0.01 0.04 0.07 0.04 0.04 0.07 0.15 0.13 0.03 0.05 0.06 0.25 0.38 0.28 0.35 0.22 0.25 0.51 0.19 0.13 0.08 0.05 0.01 0.01 0.01 0.03 0.05 0.03 0.03 0.05 0.12 0.08 0.11 0.33 0.27 0.16 0.17 0.08 0.25 0.27 0.11 0.08 0.04 0.04 0.01 0.02 0.01 0.02 0.02 0.02 0.01 0.02
0.03 0.01 0.07 0.14 0.15 0.06 0.12 0.11 0.09 0.10 0.13 0.01 0.06 0.06 0.03 0.07 0.06 0.05 0.02 0.01 0.01 0.03 0.07 0.05 0.03 0.04 0.04 0.08 0.09 0.07 0.17 0.13 0.07 0.05 0.02 0.03 0.04 0.02 0.03 0.05 0.07 0.03 0.08 0.05 0.08 0.15 0.13 0.12 0.13 0.16 0.10 0.11 0.48 0.54 0.18 0.21 0.15 0.30 0.09 0.09 0.07 0.09 0.04 0.04 0.08 0.12 0.11 0.07 0.07 0.23 0.10 0.22 0.11 0.23 0.12 0.11 0.06 0.03 0.04 0.02 0.05 0.04 0.02 0.02 0.02 0.03
0.05 0.08 0.21 0.34 0.12 0.12 0.21 0.13 0.08 0.08 0.05 0.02 0.06 0.12 0.08 0.18 0.10 0.07 0.10 0.06 0.10 0.04 0.09 0.08 0.05 0.04 0.08 0.04 0.06 0.07 0.14 0.16 0.13 0.16 0.10 0.17 0.07 0.05 0.10 0.13 0.13 0.14 0.13 0.14 0.17 0.13 0.11 0.09 0.07 0.05 0.12 0.03 0.12 0.17 0.04 0.01 0.03 0.09 0.20 0.14 0.09 0.10 0.11 0.16 0.23 0.18 0.17 0.18 0.30 0.33 0.16 0.06 0.17 0.19 0.42 0.36 0.21 0.09 0.08 0.04 0.07 0.06 0.03 0.04 0.05 0.06
0.12 0.12 0.13 0.11 0.06 0.07 0.18 0.18 0.16 0.03 0.05 0.11 0.07 0.14 0.18 0.37 0.33 0.22 0.36 0.12 0.19 0.01 0.05 0.10 0.05 0.06 0.07 0.03 0.05 0.05 0.10 0.11 0.29 0.34 0.06 0.21 0.15 0.10 0.10 0.03 0.07 0.09 0.10 0.05 0.16 0.26 0.29 0.26 0.26 0.27 0.16 0.04 0.06 0.06 0.07 0.19 0.10 0.19 0.13 0.19 0.17 0.18 0.18 0.18 0.17 0.13 0.24 0.20 0.29 0.05 0.22 0.16 0.14 0.19 0.12 0.22 0.08 0.21 0.38 0.43 0.26 0.21 0.19 0.12 0.12 0.09
0.08 0.05 0.04 0.07 0.12 0.24 0.15 0.11 0.09 0.07 0.05 0.03 0.08 0.14 0.16 0.20 0.18 0.30 0.19 0.19 0.02 0.10 0.10 0.10 0.09 0.11 0.10 0.29 0.08 0.07 0.06 0.21 0.11 0.04 0.12 0.13 0.21 0.15 0.10 0.05 0.21 0.16 0.08 0.08 0.26 0.18 0.08 0.14 0.15 0.14 0.11 0.16 0.16 0.14 0.15 0.16 0.20 0.14 0.05 0.07 0.08 0.22 0.28 0.40 0.22 0.32 0.32 0.10 0.10 0.18 0.27 0.22 0.22 0.18 0.08 0.10 0.14 0.07 0.10 0.20 0.37 0.44 0.33 0.53 0.43 0.31
0.07 0.03 0.06 0.06 0.14 0.11 0.33 0.34 0.20 0.38 0.36 0.21 0.46 0.18 0.46 0.09 0.26 0.33 0.10 0.05 0.03 0.03 0.21 0.09 0.20 0.11 0.03 0.03 0.10 0.18 0.18 0.27 0.04 0.05 0.06 0.12 0.15 0.16 0.20 0.17 0.22 0.14 0.22 0.24 0.18 0.07 0.11 0.11 0.17 0.19 0.15 0.22 0.19 0.16 0.09 0.10 0.10 0.15 0.07 0.10 0.16 0.22 0.15 0.32 0.39 0.24 0.15 0.21 0.12 0.23 0.19 0.13 0.32 0.34 0.19 0.17 0.13 0.08 0.10 0.10 0.09 0.09 0.07 0.12 0.19 0.16
0.10 0.09 0.07 0.16 0.05 0.05 0.06 0.14 0.21 0.24 1.80 0.04 0.19 0.05 0.34 0.27 0.41 0.28 0.07 0.02 0.02 0.04 0.05 0.09 0.05 0.11 0.09 0.04 0.02 0.09 0.07 0.09 0.12 0.08 0.08 0.08 0.20 0.25 0.17 0.56 0.12 0.33 0.35 0.18 0.23 0.31 0.35 0.17 0.15 0.16 0.30 0.27 0.19 0.18 0.26 0.08 0.11 0.08 0.14 0.30 0.47 0.23 0.27 0.28 0.42 0.27 0.19 0.43 0.35 0.22 0.11 0.16 0.14 0.12 0.13 0.09 0.08 0.14 0.24 0.22 0.05 0.06 0.05 0.06 0.07 0.08
0.14 0.07 0.09 0.16 0.08 0.25 0.31 0.22 0.27 0.39 0.38 0.27 0.12 0.28 0.18 0.13 0.05 0.04 0.02 0.03 0.02 0.02 0.09 0.27 0.59 0.40 0.62 0.27 0.37 0.14 0.07 0.22 0.11 0.17 0.13 0.17 0.19 0.18 0.13 0.13 0.15 0.18 0.19 0.20 0.23 0.23 0.32 0.24 0.29 0.22 0.32 0.52 0.30 0.31 0.31 0.29 0.21 0.28 0.30 0.33 0.21 0.30 0.36 0.42 0.39 0.39 0.22 0.14 0.25 0.21 0.10 0.05 0.05 0.03 0.07 0.10 0.09 0.16 0.28 0.13 0.18 0.15 0.05 0.06 0.10 0.13
0.37 0.05 0.22 0.22 0.15 0.15 0.21 0.18 0.14 0.06 0.09 0.08 0.06 0.07 0.08 0.08 0.07 0.04 0.04 0.20 0.43 0.44 0.37 0.06 0.24 0.49 0.23 0.20 0.20 0.16 0.19 0.10 0.20 0.13 0.26 0.29 0.35 0.31 0.25 0.37 0.24 0.22 0.10 0.09 0.28 0.19 0.30 0.24 0.18 0.12 0.19 0.26 0.38 0.29 0.28 0.34 0.25 0.17 0.28 0.20 0.19 0.19 0.34 0.33 0.33 0.36 0.33 0.25 0.15 0.08 0.06 0.03 0.04 0.04 0.07 0.07 0.11 0.14 0.15 0.10 0.06 0.10 0.14 0.13 0.14 0.18
0.05 0.03 0.09 0.19 0.08 0.04 0.04 0.02 0.01 0.01 0.01 0.03 0.01 0.01 0.05 0.08 0.13 0.21 0.13 0.18 0.34 0.52 0.29 0.24 0.19 0.27 0.09 0.04 0.08 0.12 0.10 0.17 0.21 0.22 0.30 0.36 0.36 0.37 0.37 0.31 0.20 0.19 0.17 0.17 0.19 0.16 0.23 0.17 0.16 0.20 0.18 0.08 0.16 0.29 0.30 0.34 0.25 0.31 0.34 0.38 0.38 0.22 0.30 0.29 0.22 0.25 0.12 0.07 0.08 0.05 0.03 0.03 0.03 0.04 0.06 0.08 0.11 0.15 0.17 0.07 0.05 0.06 0.05 0.06 0.11 0.11
0.02 0.10 0.09 0.15 0.06 0.09 0.07 0.01 0.03 0.13 0.06 0.04 0.05 0.02 0.02 0.03 0.11 0.24 0.19 0.22 0.31 0.30 0.35 0.15 0.12 0.28 0.37 0.33 0.17 0.07 0.08 0.16 0.20 0.27 0.25 0.26 0.25 0.20 0.21 0.16 0.15 0.11 0.09 0.11 0.14 0.12 0.11 0.07 0.09 0.23 0.34 0.15 0.13 0.25 0.37 0.34 0.24 0.17 0.24 0.31 0.31 0.23 0.21 0.27 0.25 0.33 0.24 0.15 0.17 0.17 0.08 0.08 0.07 0.11 0.10 0.09 0.14 0.15 0.15 0.15 0.05 0.12 0.11 0.07 0.08 0.10
0.09 0.45 0.14 0.08 0.07 0.06 0.02 0.01 0.03 0.01 0.00 0.01 0.01 0.03 0.05 0.14 0.21 0.12 0.13 0.10 0.16 0.56 0.39 0.24 0.20 0.43 0.54 0.23 0.18 0.12 0.18 0.29 0.27 0.31 0.35 0.23 0.17 0.13 0.09 0.11 0.10 0.08 0.08 0.10 0.13 0.22 0.20 0.18 0.22 0.35 0.34 0.15 0.20 0.37 0.37 0.30 0.25 0.18 0.17 0.21 0.32 0.26 0.25 0.27 0.31 0.28 0.24 0.18 0.15 0.14 0.13 0.15 0.09 0.08 0.07 0.08 0.13 0.19 0.19 0.14 0.09 0.12 0.18 0.22 0.19 0.17
0.10 0.13 0.04 0.06 0.09 0.01 0.01 0.00 0.01 0.01 0.01 0.01 0.02 0.09 0.10 0.09 0.17 0.13 0.15 0.18 0.32 0.19 0.14 0.16 0.23 0.23 0.24 0.21 0.23 0.19 0.23 0.30 0.08 0.03 0.04 0.03 0.04 0.05 0.06 0.06 0.08 0.09 0.17 0.38 0.11 0.12 0.12 0.14 0.19 0.25 0.15 0.13 0.21 0.45 0.26 0.31 0.21 0.16 0.12 0.16 0.19 0.16 0.20 0.23 0.20 0.22 0.21 0.21 0.20 0.13 0.08 0.07 0.08 0.07 0.06 0.10 0.18 0.17 0.21 0.22 0.13 0.12 0.16 0.29 0.31 0.28
0.07 0.11 0.10 0.14 0.11 0.07 0.04 0.11 0.13 0.09 0.06 0.11 0.12 0.17 0.12 0.19 0.20 0.23 0.22 0.23 0.26 0.41 0.20 0.28 0.52 0.36 0.28 0.28 0.41 0.21 0.19 0.19 0.09 0.04 0.04 0.01 0.01 0.01 0.02 0.03 0.03 0.03 0.04 0.13 0.09 0.15 0.10 0.10 0.16 0.19 0.13 0.13 0.19 0.35 0.23 0.39 0.19 0.16 0.13 0.11 0.12 0.16 0.34 0.18 0.21 0.23 0.20 0.19 0.17 0.15 0.11 0.11 0.09 0.05 0.13 0.08 0.09 0.15 0.20 0.17 0.13 0.11 0.16 0.29 0.28 0.22
0.05 0.07 0.14 0.15 0.14 0.10 0.08 0.09 0.14 0.12 0.05 0.03 0.04 0.07 0.14 0.22 0.15 0.16 0.20 0.27 0.46 0.59 0.50 0.47 0.41 0.48 0.46 0.44 0.41 0.34 0.19 0.09 0.07 0.06 0.05 0.03 0.01 0.01 0.01 0.02 0.02 0.04 0.06 0.06 0.03 0.02 0.04 0.07 0.13 0.14 0.42 0.33 0.18 0.38 0.29 0.40 0.28 0.26 0.13 0.10 0.15 0.20 0.20 0.16 0.18 0.18 0.20 0.20 0.20 0.16 0.15 0.12 0.09 0.04 0.03 0.04 0.12 0.10 0.14 0.16 0.15 0.10 0.11 0.13 0.20 0.22